Regional Weather Roundup
Issued by NWS

Home | Current Version | Previous Version | Graphics & Text | Print | Product List | Glossary On
Versions: 1 2 3 4 5 6 7 8 9 10 11 12 13 14 15 16 17 18 19 20 21 22 23 24 25
000
ASUS45 KTFX 222010
RWRMT
MONTANA REGIONAL WEATHER ROUNDUP
NATIONAL WEATHER SERVICE GREAT FALLS MT
200 PM MDT TUE AUG 22 2017

NOTE: "FAIR" INDICATES FEW OR NO CLOUDS BELOW 12000 FEET WITH NO
SIGNIFICANT WEATHER AND/OR OBSTRUCTIONS TO VISIBILITY.

MTZ001>007-043-222100-
WEST OF THE DIVIDE

CITY           SKY/WX    TMP DP  RH WIND       PRES   REMARKS
KALISPELL      SUNNY     82  43  25 VRB5      30.09F
MISSOULA       SUNNY     80  37  21 SE3       30.10F HAZE
BUTTE          SUNNY     82  31  15 VRB6      30.22F
MULLAN PASS    SUNNY     74  36  25 CALM      30.26F
ANACONDA         N/A     81  43  26 N9        30.16F
DEER LODGE       N/A     81  36  19 NE8       30.19F
EUREKA           N/A     84  43  23 MISG      30.07F
HAMILTON         N/A     77  43  29 N5        30.12F
LIBBY            N/A     86  39  19 NE6       30.03F
PLAINS           N/A     89  43  20 N1        30.06F
RONAN            N/A     82  45  27 CALM      30.15F
$$

MTZ008-052>055-222100-
SOUTHWEST MONTANA

CITY           SKY/WX    TMP DP  RH WIND       PRES   REMARKS
BOZEMAN        SUNNY     82  35  18 CALM      30.17F
DILLON         SUNNY     83  34  17 S7        30.19F
W YELLOWSTONE  SUNNY     77  32  19 W9G17     30.32F
ENNIS          SUNNY     84  32  15 VRB7      30.24F
THREE FORKS      N/A     82  36  19 CALM      30.14F
$$

MTZ009-010-012-014-046-048-049-054-222100-
EAST SLOPES AND CENTRAL MONTANA

CITY           SKY/WX    TMP DP  RH WIND       PRES   REMARKS
CUT BANK       SUNNY     81  37  20 VRB3      30.13F
GREAT FALLS    SUNNY     83  32  16 VRB5      30.12F
MALMSTROM AFB  SUNNY     82  36  19 W6        30.11F
HELENA         SUNNY     84  38  19 VRB5      30.12F
AUGUSTA          N/A     80  34  18 S7        30.15F
BOWMANS CRNR     N/A     80  31  16 E3        30.13F
CHOTEAU          N/A     84  37  18 VRB5      30.14F
CONRAD           N/A     82  42  24 N2        30.14F
FAIRFIELD        N/A     81  34  18 E7        30.12F
POWER            N/A     81  34  18 CALM      30.12F
RAYNESFORD       N/A     84  34  16 NW9       30.13F
ULM              N/A     84  32  15 W5        30.11F HAZE
$$

MTZ011-013-016-021-045-047-050-051-222100-
NORTH CENTRAL MONTANA

CITY           SKY/WX    TMP DP  RH WIND       PRES   REMARKS
HAVRE          SUNNY     85  37  18 MISG      30.08F
LEWISTOWN      SUNNY     85  35  16 E8        30.15F
N BAR RANCH      N/A     81  30  16 S12       30.20F
CHINOOK          N/A     82  39  21 NE9       30.08F
DENTON           N/A     83  35  18 NE6       30.10F
GEYSER           N/A     82  33  17 E3        30.14F
GRASS RANGE      N/A     82  33  17 E12       30.12F
JUDITH GAP       N/A     80  33  18 SE13      30.18F
WINIFRED         N/A     81  34  18 E15G22    30.13F
$$

MTZ017>020-022>027-061-062-222100-
NORTHEAST MONTANA

CITY           SKY/WX    TMP DP  RH WIND       PRES   REMARKS
GLASGOW        SUNNY     81  34  18 VRB6      30.12F
JORDAN           N/A     85  34  16 SE12G17   30.11F
SIDNEY         SUNNY     79  38  22 VRB5      30.16F
WOLF POINT     SUNNY     81  35  19 VRB3      30.14F
MALTA          SUNNY     82  36  18 CALM      30.10F
PLENTYWOOD       N/A     75  37  25 CALM      30.15F
SCOBEY           N/A     78  39  24 S2        30.13F
$$

MTZ028>42-056>058-222100-
SOUTHCENTRAL AND SOUTHEAST MONTANA

CITY           SKY/WX    TMP DP  RH WIND       PRES   REMARKS
BAKER          SUNNY     83  36  18 VRB3      30.17F
BILLINGS       MOSUNNY   84  31  14 E7        30.15F
LIVINGSTON     SUNNY     85  34  16 NE7       30.16F
MILES CITY     SUNNY     86  34  15 E6        30.12F
BIG TIMBER     SUNNY     82  36  18 E9        30.19F
EKALAKA          N/A     82  39  21 W7        30.14F
HARLOWTON        N/A     80  32  17 MISG      30.16F
LAUREL           N/A     81  41  24 NE5       30.13F
$$

REGIONAL REPORTS...DAKOTAS

CITY           SKY/WX    TMP DP  RH WIND       PRES   REMARKS
WILLISTON      SUNNY     78  39  24 S6        30.16F
MINOT          SUNNY     77  37  23 W17       30.14S
DICKINSON      SUNNY     78  40  25 NE6       30.17F
BEACH            N/A     77  34  20 S8        30.20F
CROSBY           N/A     77  36  22 N12       30.15F
TIOGA            N/A     75  37  25 N15G21    30.18S
WATFORD CITY     N/A     77  34  20 W6        30.16S
BISMARCK       SUNNY     77  40  26 NW10      30.17F
GRAND FORKS    MOSUNNY   76  42  29 NW24G32   30.05S
FARGO          SUNNY     76  44  32 NW20      30.07F
BUFFALO SD       N/A     84  41  21 SE7       30.12F
RAPID CITY     SUNNY     82  45  27 S15G21    30.17F
$$

REGIONAL REPORTS...WYOMING/IDAHO/WASHINGTON

CITY           SKY/WX    TMP DP  RH WIND       PRES   REMARKS
GILLETTE       SUNNY     83  37  19 VRB6      30.18F
SHERIDAN       SUNNY     85  34  16 N5        30.18F
BUFFALO WY     SUNNY     83  30  14 NW8       30.24F
CODY           SUNNY     83  35  18 VRB6      30.21F
YELLOWSTONE LA   N/A     72  44  36 CALM      30.42F
IDAHO FALLS    SUNNY     84  29  13 VRB5      30.21F
SALMON         SUNNY     79  40  24 NW5       30.14F
BOISE          SUNNY     87  43  21 VRB3      30.09F
SPOKANE        MOSUNNY   85  45  24 CALM      30.04F
$$

REGIONAL REPORTS...ALBERTA

CITY           SKY/WX    TMP DP  RH WIND       PRES   REMARKS
EDMONTON       MOSUNNY   75  54  46 W6        30.04F
CALGARY        MOSUNNY   77  46  33 E5        30.10F
LETHBRIDGE     SUNNY     81  41  24 VRB2      30.08F
MEDICINE HAT   MOSUNNY   84  39  20 VRB8      30.05F
$$

REGIONAL REPORTS...SASKATCHEWAN

CITY           SKY/WX    TMP DP  RH WIND       PRES   REMARKS
SWIFT CURRENT  SUNNY     81  41  24 NW9       30.10F
REGINA         PTSUNNY   75  37  25 SW5       30.12F
SASKATOON      PTSUNNY   77  48  36 SW9       30.06F
$$




USA.gov is the U.S. government's official web portal to all federal, state and local government web resources and services.